Location: Gad�tanya
(48.0500°N, 20.8500°E)
Time: 11:55:47
(UTC+00:00)

CZ-2C R/B - Pass Details

Date: 05 July 2020
Orbit: 784 x 871 km, 98.3° (Epoch: 14 August)

Event Time Altitude Azimuth Distance (km) Brightness Sun altitude
Rises 19:05:09 0° 11° (N) 3,413 6.3 -4.3°
Reaches altitude 10° 19:07:34 10° 9° (N) 2,461 5.6 -4.6°
Maximum altitude 19:12:57 65° 289° (WNW) 903 3.2 -5.3°
Drops below altitude 10° 19:18:11 10° 208° (SSW) 2,387 4.9 -5.9°
Sets 19:20:29 0° 205° (SSW) 3,302 5.6 -6.2°
